Regional Weather Roundup
Issued by NWS Northern Indiana

Home | Current Version | Previous Version | Text Only | Print | Product List | Glossary Off
Versions: 1 2 3 4 5 6 7 8 9 10 11 12 13 14 15 16 17 18 19 20 21 22 23 24 25 26 27 28 29 30 31 32 33 34 35 36 37 38 39 40 41 42 43 44 45 46 47 48 49 50

000
ASUS43 KIWX 300700
RWRIWX

KIWX WEATHER ROUNDUP
NATIONAL WEATHER SERVICE NORTHERN INDIANA
300 AM EDT SAT APR 30 2016

NOTE: "FAIR" INDICATES FEW OR NO CLOUDS BELOW 12,000 FEET WITH NO
SIGNIFICANT WEATHER AND/OR OBSTRUCTIONS TO VISIBILITY.

* THESE STATIONS ARE NOT UNDER NWS QUALITY CONTROL. THEY ALSO MAY NOT
  REPORT WEATHER SUCH AS PRECIPITATION OR FOG.

INZ001>027-300800-
NORTHERN INDIANA

CITY           SKY/WX    TMP DP  RH WIND       PRES   REMARKS
SOUTH BEND     CLOUDY    46  42  86 E7        30.08F
GOSHEN         CLEAR     44  40  85 E8        30.08F FOG
ANGOLA*        PTCLDY    45  39  81 E8        30.10F
FORT WAYNE     CLOUDY    44  41  89 E10       30.09F

$$
INZ028>050-300800-
CENTRAL INDIANA

CITY           SKY/WX    TMP DP  RH WIND       PRES   REMARKS
LAFAYETTE      PTCLDY    49  46  90 E9        30.02F
KOKOMO*        PTCLDY    48  43  81 E12       30.04F
MUNCIE*        CLOUDY    50  45  83 E10       30.05F
INDIANAPOLIS   CLOUDY    53  45  74 E15       29.99F

$$
MIZ043>046-050>051-056>058-064>065-071>073-077>080-300800-
SOUTHWEST LOWER MICHIGAN

CITY           SKY/WX    TMP DP  RH WIND       PRES   REMARKS
BATTLE CREEK   CLOUDY    48  40  73 E5        30.13S
BENTON HARBOR  CLOUDY    48  41  76 E6        30.10F
COLDWATER*     CLOUDY    46  38  73 E7        30.12F
HILLSDALE*     CLOUDY    45  39  79 SE5       30.13S
HOLLAND        CLEAR     42  38  85 E6        30.14R
GRAND RAPIDS   CLEAR     41  37  86 E6        30.15R
KALAMAZOO      CLOUDY    49  40  71 E3        30.13S
STURGIS*       MOCLDY    45  38  77 E8        30.10F
THREE RIVERS*  CLOUDY    48  40  75 E7        30.11F

$$
OHZ001>008-015>018-024>025-300800-
NORTHWEST OHIO

CITY           SKY/WX    TMP DP  RH WIND       PRES   REMARKS
DEFIANCE       CLEAR     45  39  79 E6        30.13S
FINDLAY        CLEAR     42  36  79 E6        30.12F
TOLEDO EXPRESS MOCLDY    42  35  76 E3        30.14F
TOLEDO METCALF CLEAR     42  37  82 CALM      30.16S
LIMA           CLOUDY    43  40  89 E7        30.10F

$$
AND FOR LAKE MICHIGAN COASTAL AND OPEN LAKE BUOY OBSERVATIONS

STATION/POSITION TEMP    WIND        PRES    VSBY  WAVE
                 AIR SEA DIR/SP/G                  HT/PER
                 (F)     (DEG/KT/KT) (MB)    (MI)  (FT/S)
CALUMET HARBOR    43      20/  7/  9 1018.5F
MICHIGAN CITY     45      60/  7/  8   N/A
BURNS HARBOR      45      60/  8/  9 1019.3F
SAINT JOSEPH      48      20/  1/  3 1020.3F
SOUTH LAKE BUOY   42 40   70/  8/ 10 1020.1          1
4 MI NW BRIDGMAN  49 47                N/A           2/ 4

$$
&&



USA.gov is the U.S. government's official web portal to all federal, state and local government web resources and services.